sat.trackr.live / text

‹ back to catalog

STARLINK-4579

NORAD 53677 · 2022-105AF

PAYLOAD ACTIVE UNKNOWN

§ Identity

Operator
Country
US
Launch date
2022-08-31
Launch site
AFWTR
Launch vehicle
Mass (kg)
RCS (m²)

Purposes: comms

External: N2YO · Heavens-Above · Gunter

§ Orbital elements

Epoch: 2026-09-20T14:20:53.155680Z

Period
93.91 min
Inclination
97.2849°
Eccentricity
0.0001527
Mean motion
15.33438598 rev/d
Perigee alt
464.5 km
Apogee alt
466.6 km
Semi-major
6,843.7 km
B*
3.7479e-5
RAAN
140.3039°
Arg perigee
91.0408°
Mean anomaly
269.1010°
Rev number
22,275

§ Raw data

STARLINK-45791 53677U 22105AF  26263.59783745  .00001135  00000+0  37479-4 0  99982 53677  97.2849 140.3039 0001527  91.0408 269.1010 15.33438598222752

JSON: /api/v1/satellites/53677 · /tle

For live sub-satellite position, see the globe view (requires WebGL).

§ Visibility from observer

Set your observer location to see the next 7 days of passes ≥ 10°. The values pass through the URL so the page stays shareable.

No JS? Fill the form by hand. The geolocation button needs JavaScript.